Weather History for KMMU - March, 2013

Change the Weather History Date:

Wednesday, March 6, 2013

  Actual Average Record
Temperature  
Mean Temperature 40 °F -  
Max Temperature 42 °F 47 °F 74 °F (1976)
Min Temperature 37 °F 27 °F -1 °F (1948)
Degree Days  
Heating Degree Days 26    
Moisture  
Dew Point 29 °F    
Average Humidity 65    
Maximum Humidity 76    
Minimum Humidity 57    
Precipitation  
Precipitation 0.00 in - - ()
Sea Level Pressure  
Sea Level Pressure 29.92 in    
Wind  
Wind Speed 9 mph (ENE)    
Max Wind Speed 32 mph    
Max Gust Speed 47 mph    
Visibility 10 miles    
Events      
Averages and records for this station are not official NWS values.
T = Trace of Precipitation, MM = Missing Value Source: NWS Daily Summary

Daily Weather History Graph

Daily Weather History Graph

Search for Another Location

Airport or City:

Trip Planner

Search our weather history database for the weather conditions in past years. The results will help you decide how hot, cold, wet, or windy it might be!

Date:

Astronomy

Mar. 06, 2013 Rise Set
Actual Time 6:23 AM EST 5:54 PM EST
Civil Twilight 5:56 AM EST 6:22 PM EST
Nautical Twilight 5:24 AM EST 6:53 PM EST
Astronomical Twilight 4:52 AM EST 7:25 PM EST
Moon 2:31 AM EST (3/6) 12:32 PM EST (3/6)
Length of Visible Light 12h 26m
Length of Day
11h 31m
Waning Crescent, 30% of the Moon is Illuminated
Mar 6
Waning Crescent
Mar 11
New
Mar 19
First Quarter
Mar 27
Full
Apr 3
Last Quarter

Hourly Weather History & Observations

Time (EST) Temp. Windchill Dew Point Humidity Pressure Visibility Wind Dir Wind Speed Gust Speed Precip Events Conditions
12:15 AM 37.4 °F - 26.6 °F 65% 29.97 in 10.0 mi Calm Calm - N/A   Overcast
12:35 AM 39.2 °F - 26.6 °F 61% 29.97 in 10.0 mi Calm Calm - N/A   Overcast
12:55 AM 37.4 °F - 28.4 °F 70% 29.96 in 10.0 mi Calm Calm - N/A   Overcast
1:15 AM 39.2 °F - 26.6 °F 61% 29.96 in 10.0 mi Calm Calm - N/A   Overcast
1:35 AM 39.2 °F - 26.6 °F 61% 29.96 in 10.0 mi Calm Calm - N/A   Overcast
1:55 AM 39.2 °F - 26.6 °F 61% 29.95 in 10.0 mi Calm Calm - N/A   Overcast
2:15 AM 39.2 °F 35.9 °F 26.6 °F 61% 29.94 in 10.0 mi NE 4.6 mph - N/A   Overcast
2:35 AM 39.2 °F 35.9 °F 28.4 °F 65% 29.93 in 10.0 mi ENE 4.6 mph - N/A   Overcast
2:55 AM 41.0 °F 37.1 °F 30.2 °F 65% 29.92 in 10.0 mi ENE 5.8 mph - N/A   Overcast
3:15 AM 41.0 °F 34.3 °F 30.2 °F 65% 29.91 in 10.0 mi ENE 11.5 mph - N/A   Overcast
3:35 AM 41.0 °F 35.8 °F 30.2 °F 65% 29.90 in 10.0 mi ENE 8.1 mph 17.3 mph N/A   Overcast
3:55 AM 41.0 °F 34.7 °F 30.2 °F 65% 29.90 in 10.0 mi ENE 10.4 mph 19.6 mph N/A   Mostly Cloudy
4:15 AM 41.0 °F 34.7 °F 30.2 °F 65% 29.91 in 10.0 mi ENE 10.4 mph - N/A   Mostly Cloudy
4:35 AM 41.0 °F 34.7 °F 30.2 °F 65% 29.91 in 10.0 mi ENE 10.4 mph 16.1 mph N/A   Overcast
4:55 AM 41.0 °F 35.2 °F 30.2 °F 65% 29.91 in 10.0 mi East 9.2 mph 18.4 mph N/A   Overcast
5:15 AM 41.0 °F 33.9 °F 32.0 °F 70% 29.90 in 10.0 mi ENE 12.7 mph 23.0 mph N/A   Overcast
5:35 AM 41.0 °F 34.3 °F 32.0 °F 70% 29.90 in 10.0 mi ENE 11.5 mph 16.1 mph N/A   Overcast
6:45 AM 39.2 °F 29.8 °F 32.0 °F 75% 29.90 in 8.0 mi East 18.4 mph 31.1 mph N/A   Overcast
7:45 AM 39.2 °F 28.5 °F 32.0 °F 75% 29.89 in 9.0 mi East 24.2 mph 34.5 mph N/A   Overcast
8:45 AM 39.2 °F 30.5 °F 32.0 °F 75% 29.90 in 9.0 mi East 16.1 mph 31.1 mph N/A   Overcast
9:45 AM 41.0 °F 32.2 °F 32.0 °F 70% 29.89 in 10.0 mi East 18.4 mph 33.4 mph N/A   Overcast
10:45 AM 41.0 °F 30.5 °F 32.0 °F 70% 29.89 in 10.0 mi East 26.5 mph 40.3 mph N/A   Overcast
11:45 AM 41.0 °F 30.5 °F 32.0 °F 70% 29.89 in 10.0 mi East 26.5 mph 42.6 mph N/A   Overcast
12:45 PM 42.8 °F 31.9 °F 30.2 °F 61% 29.86 in 10.0 mi East 32.2 mph 47.2 mph N/A   Overcast
1:45 PM 42.8 °F 32.9 °F 30.2 °F 61% 29.87 in 10.0 mi East 26.5 mph 40.3 mph N/A   Overcast
2:45 PM 41.0 °F 32.8 °F 33.8 °F 76% 29.87 in 7.0 mi East 16.1 mph 28.8 mph N/A   Light Drizzle
3:45 PM 41.0 °F 32.5 °F 30.2 °F 65% 29.87 in 7.0 mi NE 17.3 mph 28.8 mph N/A   Overcast
4:45 PM 41.0 °F 33.5 °F 28.4 °F 61% 29.89 in 7.0 mi NE 13.8 mph 27.6 mph N/A   Overcast
5:45 PM 41.0 °F 32.2 °F 26.6 °F 57% 29.90 in 10.0 mi NE 18.4 mph 28.8 mph N/A   Overcast
6:45 PM 41.0 °F 31.4 °F 26.6 °F 57% 29.92 in 10.0 mi NE 21.9 mph 36.8 mph N/A   Overcast
7:45 PM 39.2 °F 30.2 °F 26.6 °F 61% 29.94 in 10.0 mi NE 17.3 mph 27.6 mph N/A   Overcast
8:45 PM 37.4 °F 28.5 °F 28.4 °F 70% 29.95 in 10.0 mi ENE 15.0 mph 31.1 mph N/A   Overcast
9:45 PM 37.4 °F 28.2 °F 28.4 °F 70% 29.96 in 10.0 mi NE 16.1 mph 32.2 mph N/A   Mostly Cloudy
9:55 PM 39.2 °F 31.2 °F 30.2 °F 70% 29.94 in 10.0 mi NNE 13.8 mph 21.9 mph N/A   Overcast
10:15 PM 39.2 °F 30.5 °F 28.4 °F 65% 29.95 in 10.0 mi NNE 16.1 mph 25.3 mph N/A   Overcast
10:35 PM 39.2 °F 29.8 °F 26.6 °F 61% 29.95 in 10.0 mi NNE 18.4 mph 23.0 mph N/A   Overcast
10:55 PM 41.0 °F 33.5 °F 26.6 °F 57% 29.95 in 10.0 mi NNE 13.8 mph 24.2 mph N/A   Overcast
11:15 PM 39.2 °F 31.2 °F 26.6 °F 61% 29.95 in 10.0 mi NNE 13.8 mph 24.2 mph N/A   Mostly Cloudy
11:35 PM 39.2 °F 30.5 °F 26.6 °F 61% 29.95 in 10.0 mi NNE 16.1 mph 21.9 mph N/A   Overcast
11:55 PM 39.2 °F 30.8 °F 26.6 °F 61% 29.95 in 10.0 mi NNE 15.0 mph 23.0 mph N/A   Overcast